Cloud_Cover
0 0 0 0 0 0 0 0 0 0 3 3 5 5 5 5 4 5 4 2 0 0 0 0 0 0 5 80 70 3 5 55 80 62 6 90 6 88 15 30 0 0 0 0 0
0 0 0 0 0 0 0 0 0 0 0 0 0 4 3 2 5 4 5 5 5 5 5 2 0 0 5 22 4 4 5 90 32 96 95 22 0 54 4 10 0 0 0 0 0
0 0 0 0 0 0 0 0 0 0 0 0 0 1 4 0 0 5 4 5 0 0 0 5 5 0 21 100 78 2 8 77 94 71 100 20 0 0 0 8 18 0 0 0 0
0 0 0 0 0 0 0 0 0 0 0 0 0 0 0 0 0 0 0 0 0 0 0 0 0 0 21 99 4 0 4 9 29 91 87 68 0 4 0 3 35 75 0 0 0
0 0 0 0 0 0 0 0 0 0 0 0 0 0 0 0 0 0 0 0 0 0 0 0 0 0 0 0 0 0 0 0 5 54 95 8 1 5 4 3 77 100 41 0 0
0 0 0 0 0 0 0 0 0 0 0 0 0 0 0 0 0 0 0 0 0 0 0 0 0 0 0 0 0 0 0 0 0 0 3 26 29 54 5 0 46 90 9 16 5
0 0 0 0 0 0 0 0 0 0 0 0 0 0 0 0 0 0 0 0 0 0 0 0 0 0 0 0 0 0 0 0 0 0 4 44 6 40 82 5 5 35 81 13 0
0 0 0 0 0 0 0 0 0 0 0 0 0 0 0 0 0 0 0 0 0 0 0 0 0 0 0 0 0 0 0 0 0 0 41 40 10 8 59 59 30 73 87 59 0
0 0 0 0 0 0 0 0 0 0 0 0 0 0 0 0 0 0 0 0 0 0 0 0 0 0 0 0 0 0 0 0 0 3 1 5 71 88 5 3 4 14 43 69 11
0 0 0 0 0 0 0 0 0 0 0 0 0 0 0 0 0 0 0 2 0 0 0 0 0 0 0 0 0 0 0 0 0 2 5 30 100 100 55 5 5 0 0 0 0
0 0 0 0 0 0 0 0 0 0 0 0 0 0 0 0 0 0 0 0 0 0 0 0 0 0 0 0 0 0 0 0 0 1 1 12 89 60 66 14 5 0 0 0 0
0 0 0 0 0 0 0 0 0 0 0 0 0 0 0 0 0 0 0 0 0 0 0 0 0 0 0 0 0 0 0 0 0 0 0 2 5 37 94 4 5 0 0 0 0
0 0 0 0 0 0 0 0 0 0 0 0 0 0 0 0 0 0 0 0 0 0 0 0 0 0 0 0 0 0 0 0 0 0 0 0 3 5 33 3 3 0 0 0 0
0 0 0 0 0 0 0 0 0 0 0 0 0 0 0 0 0 0 0 0 0 0 0 0 0 0 0 0 0 0 0 0 0 0 0 0 0 0 0 0 0 0 1 0 0
0 0 0 0 0 0 0 0 0 0 0 0 0 0 0 0 0 0 0 0 0 0 0 0 0 0 0 0 0 0 0 4 0 0 0 0 0 0 0 0 0 0 0 0 0
0 0 0 0 0 0 0 0 0 0 0 0 0 0 0 0 0 0 0 1 2 0 0 0 5 2 0 0 0 0 0 0 5 3 3 40 0 0 0 0 0 0 0 0 4
0 0 0 0 0 0 0 0 0 0 0 0 0 0 1 0 0 0 0 0 5 0 0 1 33 4 0 0 0 3 2 2 5 5 87 100 0 5 0 0 0 0 0 0 0
0 0 0 0 0 0 0 0 0 0 0 0 0 2 0 0 4 2 94 72 70 48 8 5 6 64 4 0 0 86 100 89 5 71 100 71 3 5 5 0 0 0 0 0 0
0 0 0 0 0 0 0 0 0 0 0 0 0 0 1 0 1 0 1 46 100 100 94 18 0 74 69 34 30 40 86 8 43 79 83 49 34 7 5 5 0 0 0 0 2
1 0 0 0 0 0 0 0 0 0 0 0 0 0 2 5 4 31 70 79 68 100 100 100 60 100 100 96 100 100 34 100 2 5 33 39 95 82 5 5 2 0 2 2 100
0 0 0 0 0 0 0 0 0 0 0 0 0 0 0 6 91 52 100 15 52 89 74 73 3 100 100 96 47 100 31 100 48 40 6 100 100 48 5 5 31 85 96 80 37
0 0 4 1 0 5 5 0 0 1 0 0 0 0 0 0 61 100 100 100 100 9 98 66 10 95 100 100 78 100 80 100 100 6 7 82 72 56 14 5 5 7 5 5 100
0 0 5 0 1 5 5 5 5 2 0 0 0 0 0 0 18 100 100 100 100 100 82 46 82 71 100 100 100 100 100 28 39 52 45 76 96 69 53 80 100 100 74 15 20
0 9 8 2 5 4 5 5 5 0 1 0 0 0 1 4 5 81 26 100 100 81 100 99 100 100 100 100 100 100 72 100 100 69 59 55 98 5 5 21 12 34 89 100 100
5 36 5 5 5 5 5 3 23 5 0 0 0 0 29 7 3 38 69 95 60 92 100 10 26 76 100 100 100 96 100 100 100 100 18 30 33 27 3 2 1 1 4 12 24
5 5 7 5 5 5 5 5 5 2 0 0 0 0 0 44 3 5 79 100 46 100 96 100 100 66 100 100 100 100 100 100 100 68 5 5 4 0 4 5 0 4 47 71 99
29 9 5 16 5 5 18 7 5 2 0 2 5 0 0 0 5 15 100 12 74 100 100 100 100 100 100 100 100 100 100 100 100 60 73 100 75 87 100 51 58 4 0 2 10